Weather reports worldwide

Advertisment
Ulm-Maehringen, Germany (10840): temperature & dewpoint: 10.07.2018 18:00:00 - 16.07.2018 18:00:00 (CEST)Ulm-Maehringen, Germany (10840): temperature 5cm & temperature -5cm: 10.07.2018 18:00:00 - 16.07.2018 18:00:00 (CEST)Ulm-Maehringen, Germany (10840): temperature -20cm & temperature -100cm: 10.07.2018 18:00:00 - 16.07.2018 18:00:00 (CEST)Ulm-Maehringen, Germany (10840): wind speed & gusts: 10.07.2018 18:00:00 - 16.07.2018 18:00:00 (CEST)Ulm-Maehringen, Germany (10840): wind direction: 10.07.2018 18:00:00 - 16.07.2018 18:00:00 (CEST)Ulm-Maehringen, Germany (10840): reduced air pressure: 10.07.2018 18:00:00 - 16.07.2018 18:00:00 (CEST)Ulm-Maehringen, Germany (10840): visibility: 10.07.2018 18:00:00 - 16.07.2018 18:00:00 (CEST)Ulm-Maehringen, Germany (10840): sunshine duration: 10.07.2018 18:00:00 - 16.07.2018 18:00:00 (CEST)Ulm-Maehringen, Germany (10840): precipitation: 10.07.2018 18:00:00 - 16.07.2018 18:00:00 (CEST)
Date & Time tt [°C] td [°C] tt 5cm [°C] tt -5cm [°C] tt -20cm [°C] tt -100cm [°C] ff [km/h] ff [kn] fx [km/h] fx [kn] dd ppp [hPa] vv [km] sd [min] rr [mm]
16.07.2018 18:00:00 22,2 13,4 25,0 26,1 21,1 17,5 9 5 17 9 NE 1010,6 52 48 0,0
16.07.2018 17:00:00 22,2 13,2 26,1 27,3 20,6 17,5 5 3 13 7 E 1010,9 61 60 0,0
16.07.2018 16:00:00 20,0 15,1 22,4 26,4 20,3 17,5 4 2 13 7 WNW 1011,8 55 26 0,5
16.07.2018 15:00:00 18,6 14,2 20,0 24,7 20,1 17,5 13 7 22 12 S 1012,7 48 20 0,0
16.07.2018 14:00:00 19,0 14,1 24,2 24,5 19,9 17,5 7 4 14 8 ENE 1012,8 45 19 0,7
16.07.2018 13:00:00 17,8 15,9 17,9 21,6 19,5 17,5 6 3 15 8 NNE 1013,5 18 2 4,4
16.07.2018 12:00:00 21,7 14,0 27,1 26,1 19,2 17,5 7 4 14 7 ESE 1012,6 34 29 0,0
16.07.2018 11:00:00 19,3 13,7 22,8 23,1 19,0 17,5 8 5 15 8 SE 1013,5 39 30 0,0
16.07.2018 10:00:00 17,7 14,1 19,4 20,1 18,9 17,5 7 4 10 6 SSE 1014,3 32 8 0,0
16.07.2018 09:00:00 16,3 14,8 17,5 18,0 19,0 17,5 4 2 8 4 E 1014,8 20 0 0,0
16.07.2018 08:00:00 15,3 13,9 15,4 16,9 19,1 17,5 5 3 9 5 W 1015,2 24 5 0,0
16.07.2018 07:00:00 14,3 13,7 14,4 15,9 19,3 17,5 3 2 7 4 W 1015,5 11 1 0,0
16.07.2018 06:00:00 13,9 13,4 13,8 15,8 19,4 17,4 3 2 9 5 SSE 1015,7 4,9 0 0,0
16.07.2018 05:00:00 13,9 13,5 13,9 16,0 19,7 17,4 5 3 10 5 W 1015,5 14 0 0,0
16.07.2018 04:00:00 14,1 13,5 13,9 16,1 19,9 17,4 4 2 6 4 S 1015,5 14 0 0,1
16.07.2018 03:00:00 13,9 13,2 13,8 16,1 20,2 17,4 5 3 13 7 NW 1015,7 23 0 0,0
16.07.2018 02:00:00 14,5 13,2 13,8 16,1 20,5 17,4 5 3 7 4 N 1015,3 36 0 0,0
16.07.2018 01:00:00 13,8 13,0 13,4 16,2 20,8 17,4 2 1 5 3 N 1015,9 27 0 0,0
16.07.2018 00:00:00 14,1 13,2 12,9 16,5 21,1 17,4 4 2 7 4 W 1015,9 29 0 0,0
15.07.2018 23:00:00 14,7 14,1 13,0 17,0 21,4 17,4 3 2 6 4 W 1015,5 40 0 0,0
15.07.2018 22:00:00 15,9 13,4 13,9 17,9 21,7 17,4 3 2 7 4 SSW 1015,7 57 0 0,0
15.07.2018 21:00:00 18,6 13,5 16,0 19,5 21,9 17,4 5 3 10 5 W 1014,7 70 11 0,0
15.07.2018 20:00:00 20,0 13,0 19,2 21,1 21,9 17,4 8 4 11 6 SSW 1014,0 70 21 0,0
15.07.2018 19:00:00 22,0 10,6 25,1 22,8 21,9 17,4 7 4 12 7 ENE 1013,0 70 52 0,0
15.07.2018 18:00:00 19,9 13,0 20,9 22,3 22,0 17,4 5 3 15 8 E 1014,6 70 8 0,0
15.07.2018 17:00:00 19,0 13,6 21,3 22,5 22,2 17,4 12 7 25 13 NNE 1014,7 57 26 0,1
15.07.2018 16:00:00 17,8 13,7 17,3 21,0 22,4 17,4 16 9 23 12 NNE 1015,6 57 0 0,3
15.07.2018 15:00:00 16,7 13,7 16,5 20,7 22,6 17,4 5 3 22 12 SW 1015,7 17 0 0,2
15.07.2018 14:00:00 16,8 12,9 15,7 22,2 22,5 17,4 9 5 33 18 W 1015,5 51 0 2,9
15.07.2018 13:00:00 18,2 13,1 16,2 27,9 21,9 17,3 20 11 36 20 NW 1015,7 16 10 0,3
15.07.2018 12:00:00 26,0 9,5 31,4 33,6 21,3 17,4 10 5 21 11 SSE 1013,8 53 60 0,0
15.07.2018 11:00:00 24,2 11,9 28,2 29,8 20,8 17,3 7 4 14 8 SW 1014,5 56 60 0,0
15.07.2018 10:00:00 23,0 13,4 25,7 25,9 20,6 17,3 7 4 12 7 S 1015,0 45 54 0,0
15.07.2018 09:00:00 21,2 13,3 22,6 22,6 20,6 17,3 5 3 11 6 S 1015,6 40 60 0,0
15.07.2018 08:00:00 17,8 12,4 18,6 19,1 20,8 17,3 4 2 5 3 WSW 1016,2 36 60 0,0
15.07.2018 07:00:00 13,2 11,3 13,1 16,6 21,2 17,3 4 2 16 8 WNW 1017,3 20 31 0,0
15.07.2018 06:00:00 12,6 11,4 10,7 16,7 21,6 17,3 4 2 8 4 NW 1017,3 20 0 0,0
15.07.2018 05:00:00 12,5 11,2 12,0 17,2 21,9 17,3 4 2 6 3 W 1017,3 20 0 0,0
15.07.2018 04:00:00 12,7 11,4 11,5 17,3 22,4 17,3 3 2 7 4 WNW 1017,5 22 0 0,0
15.07.2018 03:00:00 13,2 11,6 11,4 18,0 22,8 17,3 4 2 9 5 W 1017,5 26 0 0,0
15.07.2018 02:00:00 13,4 11,6 12,0 18,7 23,3 17,3 4 2 6 3 WNW 1017,7 25 0 0,0
15.07.2018 01:00:00 14,4 12,3 13,0 19,6 23,7 17,3 5 3 6 4 W 1017,8 30 0 0,0
15.07.2018 00:00:00 16,0 13,0 12,9 20,7 24,1 17,3 4 2 4 2 WNW 1017,2 34 0 0,0
14.07.2018 23:00:00 17,1 13,4 14,0 22,1 24,5 17,3 5 3 7 4 NE 1017,0 29 0 0,0
14.07.2018 22:00:00 19,3 13,4 15,9 23,8 24,7 17,3 2 1 8 5 WNW 1016,4 44 0 0,0
14.07.2018 21:00:00 22,5 13,5 21,8 26,0 24,8 17,3 8 5 17 9 ESE 1015,0 65 31 0,0
14.07.2018 20:00:00 24,5 11,6 25,5 28,3 24,7 17,3 11 6 18 10 E 1014,6 70 24 0,0
14.07.2018 19:00:00 25,8 10,5 29,6 30,8 24,5 17,3 8 4 16 9 NE 1014,5 70 40 0,0
14.07.2018 18:00:00 25,2 11,0 28,6 32,2 24,1 17,3 6 4 26 14 ENE 1014,8 70 42 0,0
14.07.2018 17:00:00 25,8 9,9 31,6 34,8 23,6 17,3 9 5 23 12 NNE 1015,2 66 60 0,0
14.07.2018 16:00:00 25,1 12,4 30,7 34,2 23,0 17,3 13 7 24 13 NNE 1015,6 55 46 0,0
14.07.2018 15:00:00 23,7 13,2 26,9 33,0 22,4 17,3 19 11 39 21 NNE 1016,3 62 39 0,0
14.07.2018 14:00:00 24,4 13,1 29,9 34,0 21,8 17,3 10 5 26 14 ENE 1016,5 59 33 0,0
14.07.2018 13:00:00 24,0 11,8 25,7 32,6 20,9 17,3 12 6 21 12 NE 1016,5 59 40 0,0
14.07.2018 12:00:00 25,1 11,3 30,0 32,5 20,2 17,3 8 4 14 8 NE 1016,7 60 60 0,0
14.07.2018 11:00:00 22,5 11,6 27,9 28,6 19,8 17,3 8 4 16 9 SE 1017,6 44 59 0,0
14.07.2018 10:00:00 21,7 12,8 24,9 24,6 19,6 17,3 5 3 9 5 S 1018,0 32 51 0,0
14.07.2018 09:00:00 18,7 12,1 20,6 20,8 19,7 17,3 4 2 8 4 E 1018,7 37 41 0,0
14.07.2018 08:00:00 14,8 12,4 14,9 17,2 19,9 17,3 7 4 10 6 NE 1019,2 34 13 0,0
14.07.2018 07:00:00 13,0 10,7 13,4 15,9 20,2 17,3 5 3 8 4 NW 1019,6 30 22 0,0
14.07.2018 06:00:00 11,0 10,1 10,2 15,5 20,6 17,3 5 3 7 4 W 1020,1 24 0 0,0
14.07.2018 05:00:00 11,5 10,1 10,9 16,1 20,9 17,3 4 2 6 3 WNW 1020,2 29 0 0,0
14.07.2018 04:00:00 11,3 10,0 9,5 16,2 21,4 17,3 4 2 8 4 W 1020,2 27 0 0,0
14.07.2018 03:00:00 12,0 10,5 10,3 17,0 21,8 17,3 4 2 5 3 W 1020,1 34 0 0,0
14.07.2018 02:00:00 12,4 10,4 11,1 17,6 22,2 17,3 4 2 6 3 W 1020,0 37 0 0,0
14.07.2018 01:00:00 13,3 11,0 11,4 18,5 22,6 17,3 4 2 6 3 WNW 1019,9 46 0 0,0
14.07.2018 00:00:00 14,8 11,3 11,9 19,5 23,0 17,3 3 2 5 3 WNW 1019,6 54 0 0,0
13.07.2018 23:00:00 16,8 11,6 14,1 20,7 23,3 17,3 5 3 8 4 NNW 1018,9 50 0 0,0
13.07.2018 22:00:00 18,8 11,4 15,0 22,3 23,6 17,3 7 4 9 5 ENE 1017,9 70 8 0,0
13.07.2018 21:00:00 20,8 11,7 19,7 24,5 23,6 17,3 8 4 10 5 N 1017,1 70 49 0,0
13.07.2018 20:00:00 24,5 10,6 25,7 26,6 23,5 17,3 7 4 14 8 N 1016,2 70 60 0,0
13.07.2018 19:00:00 25,1 9,1 28,5 29,4 23,3 17,3 6 3 20 11 N 1016,1 70 53 0,0
13.07.2018 18:00:00 25,1 8,5 29,4 30,8 22,9 17,3 9 5 14 8 N 1016,5 70 39 0,0
13.07.2018 17:00:00 25,2 8,9 30,0 32,4 22,4 17,3 10 5 19 10 NNW 1016,6 70 39 0,0
13.07.2018 16:00:00 25,2 8,8 29,5 32,4 22,0 17,3 5 3 14 8 NNE 1016,8 70 42 0,0
13.07.2018 15:00:00 23,5 8,9 26,1 28,2 21,5 17,3 5 3 13 7 NE 1017,4 70 2 0,0
13.07.2018 14:00:00 23,2 7,9 25,3 29,8 20,9 17,3 5 3 16 9 E 1017,7 70 9 0,0
13.07.2018 13:00:00 24,4 9,2 30,7 33,5 20,0 17,3 6 3 19 10 W 1017,8 70 52 0,0
13.07.2018 12:00:00 23,1 8,5 29,6 31,1 19,3 17,3 6 3 15 8 E 1018,2 70 43 0,0
13.07.2018 11:00:00 21,7 9,6 23,6 28,4 18,8 17,3 6 3 14 8 W 1018,4 70 55 0,0
13.07.2018 10:00:00 21,6 10,4 24,1 24,8 18,5 17,3 5 3 12 7 SSE 1018,6 70 60 0,0
13.07.2018 09:00:00 20,1 10,7 20,9 20,8 18,4 17,3 4 2 6 4 SE 1018,9 67 60 0,0
13.07.2018 08:00:00 15,4 10,6 16,1 16,7 18,6 17,3 3 1 6 3 WNW 1019,7 55 60 0,0
13.07.2018 07:00:00 11,0 8,3 10,6 14,0 19,0 17,3 4 2 6 4 W 1020,8 32 58 0,0
13.07.2018 06:00:00 8,7 7,9 7,0 13,4 19,4 17,3 4 2 10 5 W 1021,5 19 0 0,0
13.07.2018 05:00:00 9,0 8,3 7,4 14,0 19,8 17,3 5 3 7 4 W 1020,8 26 0 0,0
13.07.2018 04:00:00 9,8 8,7 8,0 14,7 20,2 17,3 5 3 6 4 W 1020,6 33 0 0,0
13.07.2018 03:00:00 10,1 9,0 8,1 15,1 20,6 17,3 4 2 6 4 W 1020,5 26 0 0,0
13.07.2018 02:00:00 11,2 9,8 9,4 16,0 21,0 17,3 4 2 6 3 W 1020,1 36 0 0,0
13.07.2018 01:00:00 11,9 10,0 9,2 16,7 21,4 17,3 4 2 6 4 W 1020,2 38 0 0,0
13.07.2018 00:00:00 12,1 10,0 9,7 17,7 21,8 17,3 5 3 7 4 W 1019,9 48 0 0,0
12.07.2018 23:00:00 14,2 10,4 11,1 19,0 22,2 17,3 4 2 8 4 W 1019,1 63 0 0,0
12.07.2018 22:00:00 16,2 11,0 12,5 20,6 22,4 17,3 3 2 9 5 WNW 1018,4 70 7 0,0
12.07.2018 21:00:00 19,2 10,8 17,9 22,8 22,5 17,3 9 5 21 11 NW 1017,0 70 60 0,0
12.07.2018 20:00:00 20,8 10,9 21,8 24,9 22,4 17,3 13 7 21 11 N 1016,3 70 60 0,0
12.07.2018 19:00:00 21,9 9,5 25,0 27,8 22,2 17,3 12 6 23 12 NW 1015,9 70 26 0,0
12.07.2018 18:00:00 21,4 10,0 23,6 28,7 21,8 17,3 13 7 26 14 NW 1015,8 70 11 0,0
12.07.2018 17:00:00 22,3 9,8 25,9 30,1 21,2 17,3 9 5 22 12 WNW 1015,8 70 35 0,0
12.07.2018 16:00:00 21,4 8,9 26,3 31,4 20,6 17,4 14 8 23 12 N 1016,2 67 48 0,0
12.07.2018 15:00:00 21,4 9,5 27,0 30,3 20,0 17,4 8 4 22 12 NW 1016,3 70 37 0,0
12.07.2018 14:00:00 19,0 10,5 22,6 28,9 19,3 17,4 14 7 35 19 WNW 1016,9 62 33 0,0
12.07.2018 13:00:00 18,8 10,9 23,3 28,6 18,7 17,4 13 7 27 15 WNW 1017,0 41 30 0,0
12.07.2018 12:00:00 18,7 11,3 22,9 26,4 18,2 17,4 16 9 29 16 NW 1016,8 41 30 0,0
12.07.2018 11:00:00 17,7 10,6 20,4 24,1 17,8 17,4 12 7 27 15 W 1016,8 55 34 0,0
12.07.2018 10:00:00 17,6 10,5 20,7 21,3 17,6 17,4 11 6 25 14 NW 1016,6 58 45 0,0
12.07.2018 09:00:00 15,8 9,8 17,7 18,3 17,6 17,4 8 5 13 7 WNW 1017,1 67 44 0,0
12.07.2018 08:00:00 13,4 8,9 14,6 15,1 17,8 17,4 6 4 11 6 WSW 1017,2 64 15 0,0
12.07.2018 07:00:00 10,5 8,4 11,0 13,3 18,1 17,4 5 3 7 4 WSW 1017,8 45 0 0,0
12.07.2018 06:00:00 9,5 7,9 7,7 12,8 18,4 17,4 4 2 8 4 WSW 1017,8 41 0 0,0
12.07.2018 05:00:00 9,3 7,7 7,7 13,5 18,7 17,4 6 3 10 5 SW 1017,9 35 0 0,0
12.07.2018 04:00:00 9,9 8,5 9,9 14,2 19,0 17,4 6 4 8 4 WSW 1018,0 44 0 0,0
12.07.2018 03:00:00 9,0 7,8 8,7 14,0 19,3 17,4 3 2 6 3 W 1018,4 37 0 0,0
12.07.2018 02:00:00 9,6 8,1 7,2 14,4 19,7 17,4 3 2 7 4 WSW 1018,3 46 0 0,0
12.07.2018 01:00:00 10,3 8,3 7,9 15,4 20,0 17,4 4 2 6 3 W 1018,4 56 0 0,0
12.07.2018 00:00:00 11,2 8,5 10,7 16,3 20,3 17,4 4 2 7 4 WNW 1018,3 64 0 0,0
11.07.2018 23:00:00 11,7 8,2 10,0 16,8 20,6 17,4 4 2 6 3 W 1018,3 69 0 0,0
11.07.2018 22:00:00 12,9 8,0 9,3 17,6 20,8 17,4 4 2 6 4 W 1017,8 63 0 0,0
11.07.2018 21:00:00 15,6 7,7 13,8 19,5 20,9 17,4 5 3 16 9 W 1016,7 70 52 0,0
11.07.2018 20:00:00 17,1 7,0 17,9 21,2 20,9 17,4 10 5 28 15 WNW 1016,2 70 60 0,0
11.07.2018 19:00:00 17,4 6,8 19,4 24,0 20,6 17,3 18 10 31 17 NW 1015,8 54 57 0,0
11.07.2018 18:00:00 17,2 7,7 19,0 25,3 20,2 17,3 16 9 35 19 NW 1015,5 66 43 0,0
11.07.2018 17:00:00 17,9 7,1 22,2 26,7 19,8 17,3 21 11 35 19 NW 1015,2 46 56 0,0
11.07.2018 16:00:00 17,2 7,7 23,0 25,5 19,5 17,3 21 12 32 18 NW 1015,4 46 29 0,0
11.07.2018 15:00:00 16,2 8,5 18,4 24,0 19,1 17,3 17 9 29 16 NW 1015,6 40 5 0,0
11.07.2018 14:00:00 15,8 8,0 18,9 23,1 18,8 17,3 16 9 26 14 WNW 1015,7 40 8 0,0
11.07.2018 13:00:00 15,3 8,0 16,9 22,4 18,5 17,3 18 10 32 17 NW 1015,8 44 13 0,0
11.07.2018 12:00:00 16,4 8,3 20,8 21,4 18,3 17,3 9 5 24 13 W 1015,3 38 15 0,0
11.07.2018 11:00:00 14,4 9,1 16,0 19,5 18,2 17,3 11 6 20 11 W 1015,7 28 4 0,0
11.07.2018 10:00:00 14,1 8,8 15,7 18,4 18,1 17,3 8 4 18 10 W 1015,8 34 9 0,0
11.07.2018 09:00:00 13,1 9,3 15,0 16,4 18,2 17,3 8 5 13 7 W 1015,9 29 5 0,0
11.07.2018 08:00:00 11,7 8,8 12,7 15,2 18,5 17,3 5 3 11 6 SW 1015,9 46 20 0,0
11.07.2018 07:00:00 9,1 7,5 9,3 12,7 18,9 17,3 6 3 9 5 W 1016,5 40 13 0,0
11.07.2018 06:00:00 7,2 6,4 5,8 12,0 19,3 17,3 5 3 10 6 SW 1016,7 33 0 0,0
11.07.2018 05:00:00 8,2 6,8 5,0 12,6 19,7 17,3 3 2 6 3 WSW 1016,6 52 0 0,0
11.07.2018 04:00:00 8,4 6,5 5,4 13,3 20,1 17,3 4 2 10 6 SW 1016,7 47 0 0,0
11.07.2018 03:00:00 9,8 7,4 8,0 14,3 20,6 17,3 6 3 10 6 W 1016,5 55 0 0,0
11.07.2018 02:00:00 9,1 7,9 6,7 14,8 21,0 17,3 6 4 8 4 W 1016,9 35 0 0,0
11.07.2018 01:00:00 10,1 8,4 7,7 16,1 21,4 17,3 4 2 7 4 WNW 1016,8 41 0 0,0
11.07.2018 00:00:00 11,4 9,0 11,4 17,0 21,8 17,3 5 3 6 3 W 1016,8 55 0 0,0
10.07.2018 23:00:00 11,5 8,6 8,7 17,8 22,1 17,2 4 2 5 3 W 1016,9 53 0 0,0
10.07.2018 22:00:00 14,0 9,0 12,8 19,3 22,4 17,2 3 2 12 6 NW 1016,1 70 0 0,0
10.07.2018 21:00:00 15,8 8,4 15,1 20,8 22,6 17,2 9 5 17 9 NW 1015,4 70 31 0,0
10.07.2018 20:00:00 17,6 9,2 18,6 22,5 22,7 17,2 9 5 23 12 NW 1014,5 54 55 0,0
10.07.2018 19:00:00 18,0 9,6 20,3 24,6 22,7 17,2 15 8 30 16 NW 1014,2 49 51 0,0
10.07.2018 18:00:00 16,5 12,0 18,4 24,1 22,7 17,2 11 6 38 20 NW 1014,5 28 9 0,0

tt = temperature
td = dewpoint
tt 5cm = temperature 5cm
tt -5cm = temperature -5cm
tt -20cm = temperature -20cm
tt -100cm = temperature -100cm
ff = wind speed
fx = gusts
dd = wind direction
ppp = reduced air pressure
vv = visibility
sd = sunshine duration
rr = precipitation

Next stations